DECAYED

STARLINK-1173, 45084 (Decayed)

Orbit data source: Space-Track

STARLINK-1173, 45084 was a payload satellite owned by SpaceX/Seattle (US) in LEO that was launched on Wed, 29 Jan 2020 UTC via an FALCON 9 launch vehicle from the Air Force Eastern Test Range (AFETR). Payload-class satellites include a variety of spacecraft equipped with specific instruments for various scientific and technological missions. These include communications satellites like Starlink; space stations such as the ISS; scientific satellites like the Hubble; Earth observation satellites from companies like Planet Labs, Umbra, and HawkEye 360; GPS; miniature CubeSats for education and research; and military/defense satellites.

Not visible in the next 10 days
Identifier
45084, 2020-006AS
Orbit
Decayed
Country
Flag of USUS
Related business
Manufacturer
SpaceX/Seattle
Mission
Decayed Commercial Communications
Bus & Motor
STARLINK, Unknown motor
Mass
260 kg wet, ~248 kg dry
Launch date (UTC)
2020-01-29 (6 years ago)
Launch vehicle
FALCON 9
Launch site
Air Force Eastern Test Range (AFETR)
Object type
Payload
Rocket body
Debris
Shape & HBR
Box + 1 Pan, 10.1 m
Radar Cross Section
13.562 m², Large (>1 m²)

Expand to show TLE details & history
Last TLE update: 8 months ago

TLE from 8 months ago
0 STARLINK-1173
1 45084U 20006AS  25302.73493832  .08690490  12381-4  56066-3 0  9991
2 45084  53.0232  45.0908 0002761 259.2452 100.8284 16.40998939318259
Epoch: 2025-10-29T17:38Z
TLE epoch observation values (Epoch: 2025-10-29T17:38:18.670Z)
Latitude
-0.00003°
Longitude
102.20917°
Altitude
164.413 km
Speed
7.809 km/s
True Right ascension
03h 00m 21s
True Declination
0° 00' 00"
Sunlit
Object was in full shadow at epoch
Visualization orbit readout
Latitude
Unknown
Longitude
Unknown
Altitude
Unknown
Speed
Unknown
Apparent Right ascension
Unknown
Apparent Declination
Unknown
Sunlit
N/A
Visualization observer readout
Local Sidereal Time
14:53:39
Azimuth
Unknown
Elevation
Unknown
Doppler factor
Unknown
Orbital elements
Apogee altitude
165.244 km
Perigee altitude
161.632 km
Semi-major axis
6,541.575 km
Eccentricity
0.00028
Inclination
53.0232°
RAAN
45.0908°
Arg. of periapsis
259.2452°
True anomaly
100.85947°
Mean anomaly
100.8284°
Eccentric anomaly
100.84394°
Mean motion
4.10223 °/min
Orbital period
87.76 mins
BSTAR
0.00056066
Loading maneuver chart data...
Computing Atmospheric mass density...

Documentation

Showing up to 5 results
|